Flag for Laos Weather past 2 weeks in Vientiane, Laos

Now
88 °F

Scattered clouds.


Feels Like: 98 °F
Forecast: 74 / 89 °F
Wind: 2 mph from North

Location: Vientiane Airport

Current Time: Jul 28, 2014 at 4:12:56 PM

Latest Report: Jul 28, 2014 at 3:30 PM


Visibility: N/A

Pressure: 29.59 "Hg

Humidity: 66%

Dew point: 75 °F

Location of VientianeLocation

Historic Weather in Vientiane — Graph

°F

Vientiane temperature yesterday

Maximum temperature yesterday: 84 °F (at 4:00 PM)
Minimum temperature yesterday: 75 °F (at 7:00 AM)
Average temperature yesterday: 80 °F

Past Weeks' High & Low Weather Summary

 TemperatureHumidityPressure
High91 °F (Jul 17, 4:00 PM)100% (Jul 19, 7:00 AM)29.80 "Hg (Jul 19, 7:00 AM)
Low75 °F (Jul 22, 8:00 PM)49% (Jul 17, 6:00 PM)29.50 "Hg (Jul 17, 5:00 PM)
Average83 °F82%29.67 "Hg
* Reported Jul 13 3:00 PM — Jul 28 3:00 PM, Vientiane, Weather by CustomWeather, © 2014

Note: Actual official high and low records may vary slightly from our data, if they occured in-between our weather recording intervals... More about our weather records

Advertising

Vientiane weather history for previous 24 hours

 ConditionsComfort  
Time TempWeatherWind HumidityBarometerVisibility
3:00 PM
Jul 28
86 °FPartly sunny.2 mph70%29.62 "HgN/A
2:30 PM86 °FBroken clouds.5 mph70%29.62 "Hg4 mi
2:00 PM84 °FDrizzle. Partly sunny.5 mph74%29.65 "Hg4 mi
1:30 PM86 °FBroken clouds.2 mph70%29.68 "Hg4 mi
1:00 PM84 °FBroken clouds.2 mph74%29.71 "Hg4 mi
12:00 PM82 °FDrizzle. Broken clouds.2 mph84%29.71 "Hg4 mi
11:30 AM82 °FDrizzle. Broken clouds.2 mph84%29.71 "Hg4 mi
11:00 AM82 °FDrizzle. Broken clouds.2 mph84%29.74 "Hg4 mi
10:30 AM81 °FBroken clouds.2 mph89%29.74 "Hg4 mi
9:30 AM81 °FFog.2 mph84%29.71 "Hg3 mi
9:00 AM81 °FFog.2 mph84%29.71 "Hg3 mi
8:30 AM79 °FFog.2 mph89%29.71 "Hg3 mi
8:00 AM79 °FFog.2 mph89%29.71 "Hg3 mi
7:30 AM79 °FFog.2 mph89%29.71 "Hg3 mi
7:00 AM77 °FFog.2 mph94%29.71 "Hg3 mi
6:30 AM79 °FFog.2 mph89%29.71 "Hg2 mi
6:00 AM79 °FFog.2 mph89%29.71 "Hg2 mi
10:30 PM
Jul 27
79 °FFog.2 mph89%29.74 "Hg2 mi
10:00 PM79 °FFog.2 mph89%29.74 "Hg2 mi
9:30 PM81 °FFog.2 mph89%29.74 "Hg2 mi
9:00 PM81 °FFog.2 mph89%29.74 "Hg2 mi
8:30 PM81 °FFog.2 mph89%29.71 "Hg2 mi
8:00 PM81 °FFog.2 mph89%29.71 "Hg2 mi
7:30 PM81 °FThunderstorms. Partly cloudy.2 mph84%29.71 "Hg2 mi
7:00 PM81 °FThunderstorms. Partly cloudy.2 mph84%29.71 "Hg2 mi
6:30 PM82 °FPartly sunny.2 mph84%29.68 "HgN/A
6:00 PM82 °FPartly sunny.2 mph84%29.68 "HgN/A
5:30 PM84 °FPartly sunny.2 mph79%29.65 "HgN/A
5:00 PM84 °FPartly sunny.2 mph79%29.65 "HgN/A
4:30 PM84 °FBroken clouds.2 mph74%29.68 "HgN/A
4:00 PM84 °FBroken clouds.2 mph74%29.68 "HgN/A
Weather by CustomWeather, © 2014

See weather overviewHow to use our weather pages